| time (UTC) | temp F | wind direction | speed MPH | gust MPH | rain 1hr in | rain 24hr in | rain mn in | humidity % | barometer mb |
| 20260905044509 | 76 | 144 | 0.0 | 5.0 | 0.00 | 0.00 | 0.00 | 34 | 1001.1 |
| 20260905043013 | 77 | 150 | 0.0 | 0.0 | 0.00 | 0.00 | 0.00 | 33 | 1001.1 |
| 20260905041506 | 78 | 150 | 0.0 | 4.0 | 0.00 | 0.00 | 0.00 | 33 | 1001.1 |
| 20260905040007 | 78 | 151 | 0.0 | 2.0 | 0.00 | 0.00 | 0.00 | 33 | 1001.1 |
| 20260905034506 | 79 | 139 | 1.0 | 3.0 | 0.00 | 0.00 | 0.00 | 32 | 1001.2 |
| 20260905033005 | 78 | 145 | 1.0 | 4.0 | 0.00 | 0.00 | 0.00 | 32 | 1001.2 |
| 20260905031510 | 79 | 148 | 0.0 | 2.0 | 0.00 | 0.00 | 0.00 | 32 | 1001.1 |
| 20260905030005 | 79 | 143 | 0.0 | 2.0 | 0.00 | 0.00 | 0.00 | 32 | 1001.2 |
| 20260905024504 | 79 | 145 | 0.0 | 5.0 | 0.00 | 0.00 | 0.00 | 32 | 1001.1 |
| 20260905023009 | 79 | 147 | 1.0 | 4.0 | 0.00 | 0.00 | 0.00 | 31 | 1000.9 |
| 20260905021501 | 78 | 144 | 0.0 | 4.0 | 0.00 | 0.00 | 0.00 | 32 | 1000.6 |
| 20260905020002 | 79 | 150 | 0.0 | 2.0 | 0.00 | 0.00 | 0.00 | 32 | 1000.3 |
| 20260905014501 | 80 | 149 | 0.0 | 3.0 | 0.00 | 0.00 | 0.00 | 31 | 1000.0 |
| 20260905013003 | 78 | 137 | 0.0 | 2.0 | 0.00 | 0.00 | 0.00 | 32 | 999.9 |
| 20260905011612 | 80 | 145 | 0.0 | 2.0 | 0.00 | 0.00 | 0.00 | 31 | 999.7 |
| 20260905010105 | 83 | 167 | 0.0 | 0.0 | 0.00 | 0.00 | 0.00 | 30 | 999.7 |
| 20260905004600 | 86 | 188 | 1.0 | 4.0 | 0.00 | 0.00 | 0.00 | 25 | 999.6 |
| 20260905003059 | 88 | 183 | 4.0 | 8.0 | 0.00 | 0.00 | 0.00 | 22 | 999.5 |
| 20260905001558 | 88 | 226 | 3.0 | 9.0 | 0.00 | 0.00 | 0.00 | 22 | 999.3 |
| 20260905000057 | 90 | 226 | 5.0 | 10.0 | 0.00 | 0.00 | 0.00 | 20 | 999.4 |
| 20260904234556 | 91 | 217 | 4.0 | 9.0 | 0.00 | 0.00 | 0.00 | 20 | 999.4 |
| 20260904233056 | 92 | 226 | 4.0 | 9.0 | 0.00 | 0.00 | 0.00 | 19 | 999.2 |
| 20260904231555 | 92 | 291 | 3.0 | 5.0 | 0.00 | 0.00 | 0.00 | 20 | 999.1 |
| 20260904230106 | 91 | 203 | 1.0 | 7.0 | 0.00 | 0.00 | 0.00 | 19 | 999.2 |
| 20260904224600 | 92 | 224 | 2.0 | 8.0 | 0.00 | 0.00 | 0.00 | 19 | 999.3 |
| 20260904223106 | 91 | 313 | 2.0 | 8.0 | 0.00 | 0.00 | 0.00 | 18 | 999.3 |
| 20260904221558 | 91 | 278 | 4.0 | 10.0 | 0.00 | 0.00 | 0.00 | 19 | 999.4 |
| 20260904220048 | 91 | 288 | 5.0 | 13.0 | 0.00 | 0.00 | 0.00 | 18 | 999.5 |
| 20260904214551 | 91 | 186 | 6.0 | 11.0 | 0.00 | 0.00 | 0.00 | 18 | 999.5 |
| 20260904213044 | 91 | 89 | 4.0 | 8.0 | 0.00 | 0.00 | 0.00 | 17 | 999.6 |
| 20260904211543 | 90 | 275 | 8.0 | 15.0 | 0.00 | 0.00 | 0.00 | 17 | 999.7 |
| 20260904210041 | 91 | 287 | 8.0 | 13.0 | 0.00 | 0.00 | 0.00 | 17 | 999.8 |
| 20260904204540 | 91 | 233 | 4.0 | 11.0 | 0.00 | 0.00 | 0.00 | 18 | 1000.0 |
| 20260904203038 | 90 | 308 | 4.0 | 14.0 | 0.00 | 0.00 | 0.00 | 17 | 1000.2 |
| 20260904201542 | 90 | 291 | 7.0 | 11.0 | 0.00 | 0.00 | 0.00 | 19 | 1000.3 |
| 20260904200043 | 90 | 6 | 9.0 | 14.0 | 0.00 | 0.00 | 0.00 | 18 | 1000.5 |
| 20260904194533 | 90 | 302 | 8.0 | 15.0 | 0.00 | 0.00 | 0.00 | 19 | 1000.6 |
| 20260904193038 | 90 | 293 | 7.0 | 11.0 | 0.00 | 0.00 | 0.00 | 19 | 1000.6 |
| 20260904191529 | 89 | 302 | 4.0 | 10.0 | 0.00 | 0.00 | 0.00 | 20 | 1000.7 |
| 20260904190027 | 89 | 201 | 6.0 | 11.0 | 0.00 | 0.00 | 0.00 | 21 | 1000.8 |
| 20260904184524 | 88 | 226 | 5.0 | 11.0 | 0.00 | 0.00 | 0.00 | 23 | 1001.0 |
| 20260904183024 | 87 | 221 | 5.0 | 10.0 | 0.00 | 0.00 | 0.00 | 23 | 1001.3 |
| 20260904181522 | 87 | 235 | 3.0 | 10.0 | 0.00 | 0.00 | 0.00 | 23 | 1001.4 |
| 20260904180019 | 86 | 295 | 1.0 | 10.0 | 0.00 | 0.00 | 0.00 | 26 | 1001.5 |
| 20260904174518 | 85 | 168 | 3.0 | 7.0 | 0.00 | 0.00 | 0.00 | 27 | 1001.8 |
| 20260904173015 | 84 | 129 | 1.0 | 8.0 | 0.00 | 0.00 | 0.00 | 28 | 1002.0 |
| 20260904171527 | 84 | 190 | 2.0 | 5.0 | 0.00 | 0.00 | 0.00 | 29 | 1002.0 |
| 20260904170009 | 81 | 226 | 4.0 | 8.0 | 0.00 | 0.00 | 0.00 | 30 | 1002.0 |
| 20260904164505 | 80 | 273 | 3.0 | 6.0 | 0.00 | 0.00 | 0.00 | 33 | 1002.2 |
| 20260904163005 | 79 | 191 | 2.0 | 5.0 | 0.00 | 0.00 | 0.00 | 34 | 1002.3 |
| 20260904161611 | 78 | 327 | 3.0 | 5.0 | 0.00 | 0.00 | 0.00 | 34 | 1002.2 |
| 20260904160100 | 77 | 195 | 2.0 | 7.0 | 0.00 | 0.00 | 0.00 | 37 | 1002.2 |
| 20260904154559 | 76 | 212 | 2.0 | 7.0 | 0.00 | 0.00 | 0.00 | 37 | 1002.2 |
| 20260904153110 | 75 | 323 | 2.0 | 7.0 | 0.00 | 0.00 | 0.00 | 39 | 1002.3 |
| 20260904151553 | 76 | 182 | 1.0 | 4.0 | 0.00 | 0.00 | 0.00 | 38 | 1002.3 |
| 20260904150053 | 74 | 139 | 0.0 | 5.0 | 0.00 | 0.00 | 0.00 | 39 | 1002.3 |
| 20260904144601 | 75 | 115 | 1.0 | 3.0 | 0.00 | 0.00 | 0.00 | 38 | 1002.3 |
| 20260904143108 | 73 | 195 | 0.0 | 4.0 | 0.00 | 0.00 | 0.00 | 42 | 1002.4 |
| 20260904141544 | 72 | 188 | 0.0 | 4.0 | 0.00 | 0.00 | 0.00 | 42 | 1002.4 |
| 20260904140043 | 69 | 123 | 0.0 | 3.0 | 0.00 | 0.00 | 0.00 | 44 | 1002.2 |
| 20260904134538 | 68 | 120 | 0.0 | 3.0 | 0.00 | 0.00 | 0.00 | 44 | 1002.1 |
| 20260904133038 | 66 | 121 | 1.0 | 3.0 | 0.00 | 0.00 | 0.00 | 45 | 1001.7 |
| 20260904131535 | 65 | 117 | 3.0 | 0.0 | 0.00 | 0.00 | 0.00 | 48 | 1001.6 |
| 20260904130032 | 64 | 122 | 4.0 | 7.0 | 0.00 | 0.00 | 0.00 | 51 | 1001.5 |
| 20260904124531 | 62 | 127 | 2.0 | 5.0 | 0.00 | 0.00 | 0.00 | 50 | 1001.5 |
| 20260904123029 | 63 | 122 | 1.0 | 3.0 | 0.00 | 0.00 | 0.00 | 46 | 1001.2 |
| 20260904121528 | 64 | 130 | 1.0 | 5.0 | 0.00 | 0.00 | 0.00 | 45 | 1000.9 |
| 20260904120040 | 65 | 131 | 2.0 | 4.0 | 0.00 | 0.00 | 0.00 | 47 | 1000.7 |
| 20260904114524 | 64 | 127 | 1.0 | 3.0 | 0.00 | 0.00 | 0.00 | 47 | 1000.6 |
| 20260904113023 | 62 | 124 | 2.0 | 6.0 | 0.00 | 0.00 | 0.00 | 50 | 1000.5 |
| 20260904111522 | 62 | 146 | 0.0 | 1.0 | 0.00 | 0.00 | 0.00 | 50 | 1000.4 |
| 20260904110024 | 63 | 145 | 0.0 | 2.0 | 0.00 | 0.00 | 0.00 | 49 | 1000.4 |
| 20260904104521 | 63 | 116 | 1.0 | 5.0 | 0.00 | 0.00 | 0.00 | 49 | 1000.4 |
| 20260904103017 | 62 | 115 | 0.0 | 3.0 | 0.00 | 0.00 | 0.00 | 48 | 1000.2 |
| 20260904101520 | 61 | 134 | 0.0 | 0.0 | 0.00 | 0.00 | 0.00 | 48 | 1000.2 |
| 20260904100014 | 62 | 123 | 0.0 | 1.0 | 0.00 | 0.00 | 0.00 | 46 | 1000.2 |
| 20260904094511 | 63 | 133 | 0.0 | 2.0 | 0.00 | 0.00 | 0.00 | 45 | 1000.0 |
| 20260904093011 | 64 | 132 | 0.0 | 2.0 | 0.00 | 0.00 | 0.00 | 44 | 999.9 |
| 20260904091509 | 64 | 141 | 1.0 | 2.0 | 0.00 | 0.00 | 0.00 | 45 | 999.8 |
| 20260904090013 | 64 | 142 | 0.0 | 2.0 | 0.00 | 0.00 | 0.00 | 44 | 999.8 |
| 20260904084506 | 63 | 138 | 0.0 | 2.0 | 0.00 | 0.00 | 0.00 | 45 | 999.7 |
| 20260904083004 | 65 | 136 | 1.0 | 3.0 | 0.00 | 0.00 | 0.00 | 42 | 999.7 |
| 20260904081504 | 64 | 119 | 3.0 | 5.0 | 0.00 | 0.00 | 0.00 | 42 | 999.7 |
| 20260904080001 | 65 | 134 | 2.0 | 4.0 | 0.00 | 0.00 | 0.00 | 44 | 999.7 |
| 20260904074600 | 65 | 120 | 2.0 | 3.0 | 0.00 | 0.00 | 0.00 | 45 | 999.8 |
| 20260904073108 | 64 | 120 | 2.0 | 3.0 | 0.00 | 0.00 | 0.00 | 48 | 999.9 |
| 20260904071556 | 66 | 133 | 0.0 | 3.0 | 0.00 | 0.00 | 0.00 | 48 | 1000.0 |
| 20260904070059 | 67 | 136 | 0.0 | 3.0 | 0.00 | 0.00 | 0.00 | 46 | 1000.1 |
| 20260904064552 | 68 | 100 | 4.0 | 7.0 | 0.00 | 0.00 | 0.00 | 42 | 1000.2 |
| 20260904063110 | 67 | 134 | 1.0 | 2.0 | 0.00 | 0.00 | 0.00 | 44 | 999.9 |
| 20260904061547 | 68 | 300 | 2.0 | 4.0 | 0.00 | 0.00 | 0.00 | 40 | 1000.0 |
| 20260904060049 | 69 | 169 | 0.0 | 1.0 | 0.00 | 0.00 | 0.00 | 39 | 999.5 |
| 20260904054547 | 71 | 162 | 0.0 | 5.0 | 0.00 | 0.00 | 0.00 | 37 | 999.3 |
| 20260904053055 | 76 | 121 | 3.0 | 7.0 | 0.00 | 0.00 | 0.00 | 32 | 999.1 |
| 20260904051542 | 75 | 148 | 1.0 | 3.0 | 0.00 | 0.00 | 0.00 | 33 | 999.2 |
| 20260904050041 | 77 | 221 | 0.0 | 8.0 | 0.00 | 0.00 | 0.00 | 32 | 999.3 |